Погода в Качанове

Россия / Псковская область     57°27′45″N   27°45′52″E
темп.,
°C
ветер,
м/с
пор.,
м/с
влажн.,
%
обл.,
%
осадки,
мм/ч
давл.,
гПа
погр.,
м
21 июня, пн
пн2100:00+21ю25800 0.0 101781
03:00+18ю27944 0.3 1017137
06:00+20ю25935 0.0 1017148
09:00+26ю36705 0.0 1017516
12:00+30ююв45485 0.0 10161330
15:00+32ююв453910 0.0 10161912
18:00+32ююв35400 0.0 10152086
21:00+25ююв23700 0.0 101563
22 июня, вт
вт2200:00+21ю39760 0.0 1016179
03:00+18ю26816 0.0 1016108
06:00+19юв398213 0.0 1015212
09:00+25ююв496548 0.0 1014570
12:00+29ююв6947100 0.0 10141648
15:00+29ю4855100 0.0 10141580
18:00+28ю595868 0.2 10141192
21:00+25ю3978100 0.2 1014481
23 июня, ср
ср2300:00+21ю289013 0.0 1015174
03:00+20ю259548 0.0 1015104
06:00+21ююв268928 0.0 1015186
09:00+27ю46635 0.0 1015518
12:00+30ююв46445 0.0 10161571
15:00+32ю57323 0.0 10151912
18:00+31ююз46413 0.0 10152076
21:00+25юз2473100 0.0 101580
24 июня, чт
чт2400:00+21сз2291100 0.4 101630
03:00+19ююв1195100 0.6 101616
06:00+20юз2594100 0.0 1016209
09:00+22з2378100 0.0 1017487
12:00+26зюз3456100 0.0 1017982
15:00+23юз226783 0.0 1017166
18:00+28зюз35490 0.0 10151670
21:00+23ссз23700 0.0 101681
25 июня, пт
пт2500:00+18с25822 0.1 101692
03:00+17с238320 0.1 101666
06:00+18св128734 0.0 101686
09:00+23всв237465 0.4 1015521
12:00+28в345559 0.0 10141160
15:00+30вюв344751 0.0 10132029
18:00+23ю3883100 3.6 1010198
21:00+19св2496100 11.1 1011127